• Join FlightAware (Why Join?)
  • Login
  • US Flag GB Flag 
21:34 EDT


 

Airport Tracker/Info


-or-


 

Live Flight TrackerFlight Track Log ✈ N682RW ✈ 28-Apr-2013 ✈ KDTW - KLGB

Flight Track Log - Related Links

Times and Time Zones

All times are in EDT time to prevent confusion due to time zone crossing. See the N682RW flight status page for this flight to view local times or setup timezone preferences in your user account.

Time Position Orientation Groundspeed Altitude Reporting Facility
EDT Latitude Longitude Course Direction KTS MPH feet Rate Location/Type
19:12 42.1931 -83.3633 230° Southwest 198 228 1,300  Level Cleveland Center
19:13 42.1561 -83.4233 230° Southwest 230 265 3,600 2,640 Climbing Cleveland Center
19:14 42.1189 -83.4975 236° Southwest 258 297 6,400 2,640 Climbing Cleveland Center
19:15 42.1436 -83.5881 290° West 281 323 8,900 1,980 Climbing Cleveland Center
19:16 42.1850 -83.6769 302° West 297 342 10,400 1,680 Climbing Cleveland Center
19:17 42.2383 -83.7889 303° West 321 369 12,300 2,100 Climbing Cleveland Center
19:18 42.2856 -83.8897 302° West 346 398 14,600 2,280 Climbing Cleveland Center
19:19 42.3383 -84.0075 301° West 365 420 16,900 2,160 Climbing Cleveland Center
19:20 42.3953 -84.1258 303° West 371 427 19,000 1,740 Climbing Cleveland Center
19:22 42.4358 -84.4511 280° West 407 468 22,700 1,500 Climbing Chicago Center
19:23 42.4389 -84.6083 272° West 417 480 24,100 1,500 Climbing Chicago Center
19:24 42.4442 -84.7992 272° West 423 487 25,800 1,500 Climbing Chicago Center
19:25 42.4475 -84.9625 272° West 432 497 27,200 1,200 Climbing Chicago Center
19:26 42.4500 -85.1272 271° West 437 503 28,400 1,200 Climbing Chicago Center
19:27 42.4536 -85.2917 272° West 438 504 29,800 1,260 Climbing Chicago Center
19:28 42.4569 -85.4572 272° West 440 506 31,100 1,020 Climbing Chicago Center
19:29 42.4592 -85.6186 271° West 432 497 32,000 420 Climbing Chicago Center
19:30 42.4633 -85.8194 272° West 441 507 32,000  Level Chicago Center
19:31 42.4642 -85.9886 270° West 446 513 32,000  Level Chicago Center
19:33 42.4597 -86.1600 268° West 451 519 32,000  Level Chicago Center
19:34 42.4378 -86.3292 260° West 456 525 32,000  Level Chicago Center
19:35 42.4158 -86.4972 260° West 453 521 32,000  Level Chicago Center
19:36 42.3925 -86.6894 261° West 448 516 32,000  Level Chicago Center
19:37 42.3725 -86.8536 261° West 447 514 32,000  Level Chicago Center
19:38 42.3503 -87.0183 260° West 448 516 32,000  Level Chicago Center
19:39 42.3275 -87.1797 259° West 445 512 32,000  Level Chicago Center
19:40 42.3122 -87.3442 263° West 444 511 32,000  Level Chicago Center
19:41 42.2994 -87.5419 265° West 445 512 32,000  Level Chicago Center
19:42 42.2869 -87.7067 264° West 446 513 32,000  Level Chicago Center
19:43 42.2747 -87.8706 264° West 444 511 32,000  Level Chicago Center
19:44 42.2608 -88.0333 263° West 443 510 32,000  Level Chicago Center
19:45 42.2478 -88.1939 264° West 438 504 32,000  Level Chicago Center
19:46 42.2311 -88.3883 263° West 439 505 32,000  Level Chicago Center
19:47 42.2175 -88.5489 264° West 438 504 32,000  Level Chicago Center
19:48 42.2047 -88.7089 264° West 434 499 32,000  Level Chicago Center
19:49 42.1900 -88.8717 263° West 439 505 32,000  Level Chicago Center
19:50 42.1722 -89.0597 263° West 433 498 32,000  Level Chicago Center
19:51 42.1592 -89.2219 264° West 433 498 32,000  Level Chicago Center
19:52 42.1442 -89.3828 263° West 430 495 32,000  Level Chicago Center
19:53 42.1281 -89.5422 262° West 429 494 32,000  Level Chicago Center
19:54 42.1144 -89.7064 264° West 437 503 32,000  Level Chicago Center
19:55 42.0986 -89.8653 262° West 429 494 32,000  Level Chicago Center
19:56 42.0831 -90.0300 263° West 433 498 32,000  Level Chicago Center
19:57 42.0672 -90.1872 262° West 429 494 32,000  Level Chicago Center
19:58 42.0486 -90.3728 262° West 422 486 32,000  Level Chicago Center
19:59 42.0333 -90.5325 263° West 429 494 32,000  Level Chicago Center
20:00 42.0131 -90.6967 261° West 442 509 32,000  Level Chicago Center
20:01 41.9964 -90.8547 262° West 437 503 32,000  Level Chicago Center
20:03 41.9769 -91.0431 262° West 428 493 32,000  Level Chicago Center
20:04 41.9594 -91.2019 262° West 431 496 32,000  Level Chicago Center
20:05 41.9425 -91.3606 262° West 430 495 32,000  Level Chicago Center
20:06 41.9247 -91.5183 261° West 429 494 32,000  Level Chicago Center
20:07 41.9069 -91.6756 261° West 430 495 32,000  Level Chicago Center
20:08 41.8856 -91.8631 261° West 427 491 32,000  Level Chicago Center
20:09 41.8669 -92.0200 261° West 428 493 32,000  Level Chicago Center
20:10 41.8492 -92.1761 261° West 427 491 32,000  Level Chicago Center
20:11 41.8300 -92.3308 261° West 424 488 32,000  Level Chicago Center
20:12 41.8114 -92.4847 261° West 422 486 32,000  Level Chicago Center
20:13 41.7922 -92.6392 261° West 421 484 32,000  Level Chicago Center
20:14 41.7767 -92.7636 261° West 422 486 32,000  Level Minneapolis Center
20:15 41.7589 -92.9144 261° West 424 488 32,000  Level Minneapolis Center
20:16 41.7350 -93.0992 260° West 423 487 32,000  Level Minneapolis Center
20:17 41.7153 -93.2522 260° West 424 488 32,000 480 Level Minneapolis Center
20:18 41.6958 -93.4056 260° West 423 487 33,100 960 Climbing Minneapolis Center
20:19 41.6767 -93.5522 260° West 412 474 34,000 420 Climbing Minneapolis Center
20:20 41.6586 -93.6967 261° West 401 461 34,000  Level Minneapolis Center
20:21 41.6383 -93.8444 260° West 405 466 34,000  Level Minneapolis Center
20:22 41.6150 -94.0222 260° West 408 470 34,000  Level Minneapolis Center
20:23 41.5942 -94.1717 259° West 411 473 34,000  Level Minneapolis Center
20:24 41.5736 -94.3131 259° West 415 478 34,000  Level Minneapolis Center
20:25 41.5533 -94.4631 260° West 411 473 34,000  Level Minneapolis Center
20:26 41.5275 -94.6436 259° West 413 475 34,000  Level Minneapolis Center
20:27 41.5064 -94.7944 259° West 413 475 34,000  Level Minneapolis Center
20:28 41.4850 -94.9444 259° West 411 473 34,000  Level Minneapolis Center
20:29 41.4639 -95.0944 259° West 412 474 34,000  Level Minneapolis Center
20:30 41.4417 -95.2428 259° West 409 471 34,000  Level Minneapolis Center
20:31 41.4192 -95.3947 259° West 415 478 34,000  Level Minneapolis Center
20:32 41.3967 -95.5450 259° West 415 478 34,000  Level Minneapolis Center
20:33 41.3750 -95.6922 259° West 414 476 34,000  Level Minneapolis Center
20:34 41.3472 -95.8722 258° West 414 476 34,000  Level Minneapolis Center
20:35 41.3247 -96.0203 259° West 411 473 34,000  Level Minneapolis Center
20:36 41.3014 -96.1703 258° West 413 475 34,000  Level Minneapolis Center
20:37 41.2789 -96.3175 259° West 408 470 34,000  Level Minneapolis Center
20:38 41.2583 -96.4519 259° West 409 471 34,000  Level Minneapolis Center
20:39 41.2289 -96.6300 258° West 410 472 34,000  Level Minneapolis Center
20:40 41.2050 -96.7786 258° West 411 473 34,000  Level Minneapolis Center
20:41 41.1811 -96.9258 258° West 409 471 34,000  Level Minneapolis Center
20:43 41.1561 -97.0739 257° West 410 472 34,000  Level Minneapolis Center
20:44 41.1281 -97.2511 258° West 409 471 34,000  Level Minneapolis Center
20:45 41.1011 -97.4147 258° West 413 475 34,000  Level Minneapolis Center
20:46 41.0744 -97.5653 257° West 417 480 34,000  Level Minneapolis Center
20:47 41.0503 -97.7131 258° West 413 475 34,000  Level Minneapolis Center
20:48 41.0244 -97.8611 257° West 412 474 34,000  Level Minneapolis Center
20:49 40.9986 -98.0097 257° West 413 475 34,000  Level Minneapolis Center
20:50 40.9731 -98.1583 257° West 412 474 34,000  Level Minneapolis Center
20:51 40.9469 -98.3067 257° West 412 474 34,000  Level Minneapolis Center
20:52 40.9186 -98.4686 257° West 416 479 34,000  Level Minneapolis Center
20:53 40.8919 -98.6172 257° West 416 479 34,000  Level Minneapolis Center
20:54 40.8650 -98.7664 257° West 418 481 34,000  Level Minneapolis Center
20:55 40.8344 -98.9431 257° West 413 475 34,000  Level Minneapolis Center
20:56 40.8075 -99.0872 256° West 408 470 34,000  Level Minneapolis Center
20:57 40.7808 -99.2303 256° West 408 470 34,000  Level Denver Center
20:58 40.7542 -99.3775 257° West 411 473 34,000  Level Denver Center
20:59 40.7256 -99.5250 256° West 415 478 34,000  Level Denver Center
21:00 40.6986 -99.6722 256° West 413 475 34,000  Level Denver Center
21:01 40.6700 -99.8178 256° West 410 472 34,000  Level Denver Center
21:02 40.6417 -99.9675 256° West 414 476 34,000  Level Denver Center
21:03 40.6100 -100.1325 256° West 415 478 34,000  Level Denver Center
21:04 40.5828 -100.2731 256° West 413 475 34,000  Level Denver Center
21:05 40.5547 -100.4161 256° West 419 482 34,000  Level Denver Center
21:06 40.5225 -100.5819 256° West 417 480 34,000  Level Denver Center
21:07 40.4939 -100.7244 255° West 419 482 34,000  Level Denver Center
21:08 40.4606 -100.8894 255° West 416 479 34,000  Level Denver Center
21:09 40.4356 -101.0567 259° West 415 478 34,000  Level Denver Center
21:10 40.4133 -101.2236 260° West 414 476 34,000  Level Denver Center
21:11 40.3936 -101.3658 260° West 412 474 34,000  Level Denver Center
21:12 40.3706 -101.5336 260° West 418 481 34,000  Level Denver Center
21:13 40.3500 -101.6764 259° West 416 479 34,000  Level Denver Center
21:15 40.3308 -101.8172 260° West 411 473 34,000  Level Denver Center
21:16 40.3061 -101.9817 259° West 414 476 34,000  Level Denver Center
21:17 40.2858 -102.1228 259° West 413 475 34,000  Level Denver Center
21:18 40.2614 -102.2911 259° West 420 483 34,000  Level Denver Center
21:19 40.2394 -102.4358 259° West 422 486 34,000  Level Denver Center
21:20 40.2144 -102.6036 259° West 421 484 34,000  Level Denver Center
21:21 40.1933 -102.7586 260° West 422 486 34,000  Level Denver Center
21:22 40.1692 -102.9094 258° West 420 483 34,000  Level Denver Center
21:23 40.1453 -103.0617 258° West 424 488 34,000  Level Denver Center
21:24 40.1225 -103.2147 259° West 425 489 34,000  Level Denver Center
21:25 40.0992 -103.3636 258° West 418 481 34,000  Level Denver Center
21:26 40.0761 -103.5122 259° West 415 478 34,000  Level Denver Center
21:27 40.0519 -103.6619 258° West 418 481 34,000  Level Denver Center
21:28 40.0292 -103.8122 259° West 422 486 34,000  Level Denver Center
21:29 40.0044 -103.9617 258° West 420 483 34,000  Level Denver Center
21:30 39.9767 -104.1297 258° West 399 459 34,000  Level Denver Center
21:31 39.9528 -104.2797 258° West 418 481 34,000  Level Denver Center
21:32 39.9283 -104.4247 258° West 410 472 34,000  Level Denver Center
21:33 39.9044 -104.5706 258° West 408 470 34,000  Level Denver Center
21:34 39.8781 -104.7131 256° West 405 466 34,000  Level Denver Center
21:35 39.8508 -104.8561 256° West 409 471 34,000  Level Denver Center
21:36 39.8172 -105.0261 256° West 414 476 34,000  Level Denver Center
21:37 39.7897 -105.1672 256° West 398 458 34,000  Level Denver Center
21:38 39.7608 -105.3150 256° West 412 474 34,000  Level Denver Center
21:39 39.7314 -105.4614 255° West 414 476 34,000  Level Denver Center
21:40 39.7022 -105.6072 255° West 417 480 34,000  Level Denver Center
21:41 39.6728 -105.7547 256° West 419 482 34,000  Level Denver Center
21:42 39.6436 -105.8994 255° West 409 471 34,000  Level Denver Center
21:43 39.6150 -106.0475 256° West 418 481 34,000  Level Denver Center
21:44 39.5828 -106.2047 255° West 415 478 34,000  Level Denver Center
21:45 39.5528 -106.3514 255° West 418 481 34,000  Level Denver Center
21:46 39.5181 -106.5194 255° West 417 480 34,000  Level Denver Center
21:47 39.4894 -106.6575 255° West 414 476 34,000  Level Denver Center
21:48 39.4592 -106.7961 254° West 417 480 34,000  Level Denver Center
21:50 39.4247 -106.9567 255° West 415 478 34,000  Level Denver Center
21:51 39.3903 -107.0928 252° West 416 479 34,000  Level Denver Center
21:52 39.3494 -107.2539 252° West 420 483 34,000  Level Denver Center
21:53 39.3147 -107.3911 252° West 420 483 34,000  Level Denver Center
21:54 39.2675 -107.5742 252° West 421 484 34,000  Level Denver Center
21:55 39.2317 -107.7114 251° West 421 484 34,000  Level Denver Center
21:56 39.1911 -107.8703 252° West 417 480 34,000  Level Denver Center
21:57 39.1611 -107.9861 252° West 424 488 34,000  Level Denver Center
21:58 39.1147 -108.1683 252° West 419 482 34,000  Level Denver Center
21:59 39.0781 -108.3044 251° West 418 481 34,000  Level Denver Center
22:00 39.0422 -108.4414 251° West 420 483 34,000  Level Denver Center
22:01 39.0000 -108.6003 251° West 418 481 34,000  Level Denver Center
22:02 38.9631 -108.7367 251° West 420 483 34,000  Level Denver Center
22:03 38.9203 -108.8972 251° West 424 488 34,000  Level Denver Center
22:04 38.8833 -109.0342 251° West 424 488 34,000  Level Denver Center
22:05 38.8400 -109.1925 251° West 420 483 34,000  Level Denver Center
22:06 38.8039 -109.3286 251° West 420 483 34,000  Level Denver Center
22:07 38.7661 -109.4631 250° West 419 482 34,000  Level Denver Center
22:08 38.7219 -109.6222 250° West 421 484 34,000  Level Denver Center
22:09 38.6839 -109.7581 250° West 423 487 34,000  Level Denver Center
22:10 38.6375 -109.9175 250° West 427 491 34,000  Level Denver Center
22:11 38.6000 -110.0567 251° West 431 496 34,000  Level Denver Center
22:12 38.5828 -110.1278 253° West 431 496 34,000  Level Salt Lake Center
22:13 38.5369 -110.2875 250° West 428 493 34,000  Level Salt Lake Center
22:14 38.4967 -110.4250 250° West 431 496 34,000  Level Salt Lake Center
22:14 38.4756 -110.4908 248° West 430 495 34,000  Level Denver Center
22:15 38.4306 -110.6517 250° West 430 495 34,000  Level Denver Center
22:16 38.4097 -110.7208 249° West 432 497 34,000  Level Salt Lake Center
22:17 38.3533 -110.8486 241° Southwest 431 496 34,000  Level Salt Lake Center
22:18 38.3186 -110.9203 238° Southwest 436 502 34,000  Level Denver Center
22:18 38.2958 -110.9744 242° Southwest 435 501 34,000  Level Salt Lake Center
22:19 38.2222 -111.1350 240° Southwest 437 503 34,000  Level Salt Lake Center
22:20 38.1506 -111.2611 234° Southwest 440 506 34,000  Level Salt Lake Center
22:21 38.0789 -111.3878 234° Southwest 441 507 34,000  Level Salt Lake Center
22:22 38.0072 -111.5128 234° Southwest 439 505 34,000  Level Salt Lake Center
22:23 37.9336 -111.6400 234° Southwest 446 513 34,000  Level Salt Lake Center
22:24 37.8594 -111.7656 233° Southwest 447 514 34,000  Level Salt Lake Center
22:25 37.7867 -111.8933 234° Southwest 447 514 34,000  Level Salt Lake Center
22:26 37.7133 -112.0214 234° Southwest 448 516 34,000  Level Salt Lake Center
22:27 37.6386 -112.1486 233° Southwest 450 518 34,000  Level Salt Lake Center
22:28 37.5653 -112.2758 234° Southwest 448 516 34,000  Level Salt Lake Center
22:29 37.4758 -112.4289 234° Southwest 449 517 34,000  Level Salt Lake Center
22:30 37.3989 -112.5572 233° Southwest 454 522 34,000  Level Salt Lake Center
22:31 37.3378 -112.6600 233° Southwest 453 521 34,000  Level Los Angeles Center
22:32 37.2472 -112.8150 234° Southwest 453 521 34,000  Level Salt Lake Center
22:33 37.1719 -112.9433 234° Southwest 453 521 34,000  Level Salt Lake Center
22:34 37.1111 -113.0436 233° Southwest 450 518 34,000  Level Los Angeles Center
22:35 37.0347 -113.1706 233° Southwest 454 522 34,000  Level Los Angeles Center
22:36 36.9597 -113.2967 233° Southwest 452 520 34,000  Level Los Angeles Center
22:37 36.8686 -113.4478 233° Southwest 453 521 34,000  Level Los Angeles Center
22:39 36.7772 -113.5992 233° Southwest 455 524 34,000  Level Los Angeles Center
22:40 36.7003 -113.7247 233° Southwest 455 524 34,000  Level Los Angeles Center
22:41 36.6239 -113.8503 233° Southwest 455 524 34,000  Level Los Angeles Center
22:42 36.5464 -113.9772 233° Southwest 458 527 34,000  Level Los Angeles Center
22:43 36.4756 -114.0933 233° Southwest 454 522 34,000  Level Los Angeles Center
22:44 36.3814 -114.2456 232° Southwest 460 529 34,000  Level Los Angeles Center
22:45 36.3028 -114.3711 232° Southwest 460 529 34,000  Level Los Angeles Center
22:46 36.2256 -114.4961 233° Southwest 456 525 34,000  Level Los Angeles Center
22:47 36.1486 -114.6211 233° Southwest 455 524 34,000  Level Los Angeles Center
22:48 36.0706 -114.7456 232° Southwest 456 525 34,000  Level Los Angeles Center
22:49 35.9914 -114.8706 232° Southwest 458 527 34,000  Level Los Angeles Center
22:50 35.9050 -114.9861 227° Southwest 453 521 34,000  Level Los Angeles Center
22:51 35.8183 -115.1039 228° Southwest 458 527 34,000  Level Los Angeles Center
22:52 35.7322 -115.2219 228° Southwest 459 528 34,000  Level Los Angeles Center
22:53 35.6275 -115.3647 228° Southwest 463 533 34,000  Level Los Angeles Center
22:54 35.5411 -115.4797 227° Southwest 457 526 34,000  Level Los Angeles Center
22:55 35.4544 -115.5967 228° Southwest 461 531 34,000  Level Los Angeles Center
22:56 35.3644 -115.7161 227° Southwest 460 529 34,000  Level Los Angeles Center
22:57 35.2783 -115.8319 228° Southwest 460 529 34,000  Level Los Angeles Center
22:58 35.1922 -115.9461 227° Southwest 456 525 34,000 -480 Level Los Angeles Center
22:59 35.1047 -116.0611 227° Southwest 461 531 33,100 -1,380 Descending Los Angeles Center
23:00 35.0175 -116.1750 227° Southwest 459 528 31,200 -1,560 Descending Los Angeles Center
23:01 34.9303 -116.2906 227° Southwest 463 533 30,000 -600 Descending Los Angeles Center
23:02 34.8414 -116.4056 227° Southwest 466 536 30,000 -480 Level Los Angeles Center
23:03 34.7519 -116.5197 226° Southwest 466 536 29,100 -2,520 Descending Los Angeles Center
23:04 34.6419 -116.6531 225° Southwest 462 532 24,900 -4,080 Descending Los Angeles Center
23:05 34.5514 -116.7653 226° Southwest 463 533 20,800 -4,140 Descending Los Angeles Center
23:06 34.4642 -116.8714 225° Southwest 447 514 16,500 -3,360 Descending Los Angeles Center
23:07 34.3814 -116.9717 225° Southwest 423 487 14,000 -1,680 Descending Los Angeles Center
23:08 34.3069 -117.0631 225° Southwest 388 447 13,100 -540 Descending Los Angeles Center
23:09 34.2239 -117.1194 209° Southwest 352 405 13,000 -60 Descending Los Angeles Center
23:10 34.1364 -117.1314 186° South 321 369 13,000 -120 Level Los Angeles Center
23:11 34.0833 -117.1333 182° South 321 369 12,900 -900 Descending Southern California TRACON
23:12 34.0167 -117.1833 212° Southwest 312 359 11,800 -1,260 Descending Southern California TRACON
23:13 33.9333 -117.2167 198° South 317 365 10,400 -1,380 Descending Southern California TRACON
23:14 33.8667 -117.2833 220° Southwest 311 358 9,200 -1,080 Descending Southern California TRACON
23:14 33.8467 -117.3336 244° Southwest 286 329 8,600 -720 Descending Los Angeles Center
23:16 33.8278 -117.4028 252° West 276 318 8,000 -300 Descending Los Angeles Center
23:17 33.8025 -117.5089 254° West 235 270 8,000 -300 Level Los Angeles Center
23:18 33.7831 -117.5836 253° West 234 269 7,500 -780 Descending Los Angeles Center
23:19 33.7597 -117.6567 249° West 234 269 6,500 -1,320 Descending Los Angeles Center
23:20 33.7333 -117.7333 248° West 224 258 4,700 -1,140 Descending Southern California TRACON
23:21 33.7167 -117.8000 253° West 216 249 4,100 -300 Descending Southern California TRACON
23:22 33.6833 -117.8667 239° Southwest 215 247 4,100 -180 Level Southern California TRACON
23:23 33.6667 -117.9333 253° West 211 243 3,800 -480 Descending Southern California TRACON
23:24 33.6833 -118.0000 287° West 209 241 3,200 -720 Descending Southern California TRACON
23:25 33.7333 -118.0500 320° Northwest 202 232 2,400 -840 Descending Southern California TRACON
23:26 33.7667 -118.0833 320° Northwest 155 178 1,600 -900 Descending Southern California TRACON
23:27 33.7833 -118.1167 301° West 137 158 800 -780 Descending Southern California TRACON
23:28 33.8167 -118.1500 320° Northwest 132 152 200 -600 Descending Southern California TRACON
23:30 33.8177 -118.1517 292° West  Level Estimated